Weather History for Pontiac, MI

Change the Weather History Date:

Saturday, March 3, 2012

  Actual Average Record
Temperature  
Mean Temperature 32 °F -  
Max Temperature 37 °F 34 °F 52 °F (2008)
Min Temperature 28 °F 20 °F -8 °F (2003)
Degree Days  
Heating Degree Days 32    
Moisture  
Dew Point 24 °F    
Average Humidity 69    
Maximum Humidity 86    
Minimum Humidity 59    
Precipitation  
Precipitation 0.00 in - - ()
Sea Level Pressure  
Sea Level Pressure 29.51 in    
Wind  
Wind Speed 23 mph (WSW)    
Max Wind Speed 39 mph    
Max Gust Speed 52 mph    
Visibility 9 miles    
Events Rain , Snow    
Averages and records for this station are not official NWS values.
T = Trace of Precipitation, MM = Missing Value Source: NWS Daily Summary

Daily Weather History Graph

Daily Weather History Graph

Search for Another Location

Airport:

Trip Planner

Search our weather history database for the weather conditions in past years. The results will help you decide how hot, cold, wet, or windy it might be!

Date:

Astronomy

Mar. 03, 2012 Rise Set
Actual Time 7:05 AM EST 6:26 PM EST
Civil Twilight 6:37 AM EST 6:54 PM EST
Nautical Twilight 6:04 AM EST 7:27 PM EST
Astronomical Twilight 5:31 AM EST 8:00 PM EST
Moon 1:29 PM EST (3/3) 3:47 AM EST (3/3)
Length of Visible Light 12h 17m
Length of Day
11h 21m
Waxing Gibbous, 75% of the Moon is Illuminated
Mar 3
Waxing Gibbous
Mar 8
Full
Mar 14
Last Quarter
Mar 22
New
Mar 30
First Quarter

Hourly Weather History & Observations

Time (EST) Temp. Windchill Dew Point Humidity Pressure Visibility Wind Dir Wind Speed Gust Speed Precip Events Conditions
12:06 AM 37.4 °F 25.9 °F 30.2 °F 75% 29.17 in 10.0 mi WSW 25.3 mph 51.8 mph 0.00 in Rain Light Rain
12:21 AM 37.4 °F 24.6 °F 30.2 °F 75% 29.18 in 10.0 mi WSW 32.2 mph 48.3 mph 0.00 in   Overcast
12:53 AM 36.0 °F 21.5 °F 28.9 °F 76% 29.21 in 10.0 mi WSW 39.1 mph 49.5 mph 0.00 in   Overcast
1:53 AM 35.1 °F 21.6 °F 28.0 °F 76% 29.24 in 10.0 mi WSW 31.1 mph 51.8 mph 0.00 in   Overcast
2:53 AM 35.1 °F 21.8 °F 27.0 °F 72% 29.28 in 10.0 mi West 29.9 mph 44.9 mph 0.00 in   Overcast
3:53 AM 35.1 °F 22.7 °F 27.0 °F 72% 29.32 in 10.0 mi West 25.3 mph 36.8 mph N/A   Overcast
4:53 AM 35.1 °F 21.8 °F 27.0 °F 72% 29.37 in 10.0 mi West 29.9 mph 40.3 mph N/A   Overcast
5:53 AM 36.0 °F 23.7 °F 27.0 °F 70% 29.39 in 10.0 mi West 26.5 mph 38.0 mph 0.00 in   Overcast
6:03 AM 35.6 °F 24.0 °F 26.6 °F 70% 29.38 in 10.0 mi West 23.0 mph 38.0 mph 0.00 in Snow Light Snow
6:53 AM 35.1 °F 22.5 °F 25.0 °F 67% 29.43 in 9.0 mi WSW 26.5 mph 36.8 mph 0.00 in Snow Light Snow
7:43 AM 33.8 °F 22.2 °F 24.8 °F 70% 29.43 in 9.0 mi WSW 20.7 mph 32.2 mph 0.00 in Snow Light Snow
7:53 AM 34.0 °F 21.8 °F 25.0 °F 70% 29.46 in 9.0 mi WSW 23.0 mph 33.4 mph 0.00 in Snow Light Snow
8:09 AM 33.8 °F 23.5 °F 24.8 °F 70% 29.45 in 8.0 mi WSW 16.1 mph 27.6 mph 0.00 in Snow Light Snow
8:53 AM 33.1 °F 20.3 °F 24.1 °F 70% 29.48 in 7.0 mi WSW 24.2 mph 33.4 mph 0.00 in Snow Light Snow
9:22 AM 33.8 °F 21.3 °F 23.0 °F 65% 29.47 in 9.0 mi WSW 24.2 mph 38.0 mph 0.00 in Snow Light Snow
9:53 AM 33.1 °F 21.5 °F 23.0 °F 66% 29.51 in 9.0 mi WSW 19.6 mph 32.2 mph 0.00 in Snow Light Snow
10:04 AM 33.8 °F 22.8 °F 21.2 °F 60% 29.49 in 9.0 mi WSW 18.4 mph 33.4 mph 0.00 in Snow Light Snow
10:53 AM 34.0 °F 23.4 °F 23.0 °F 64% 29.53 in 9.0 mi West 17.3 mph 28.8 mph 0.00 in Snow Light Snow
11:11 AM 33.8 °F 21.6 °F 21.2 °F 60% 29.51 in 10.0 mi WSW 23.0 mph 34.5 mph 0.00 in   Mostly Cloudy
11:53 AM 35.1 °F 24.5 °F 21.9 °F 59% 29.55 in 10.0 mi WSW 18.4 mph 44.9 mph 0.00 in   Mostly Cloudy
12:18 PM 33.8 °F 22.2 °F 23.0 °F 65% 29.53 in 10.0 mi WSW 20.7 mph 32.2 mph N/A   Overcast
12:53 PM 34.0 °F 22.7 °F 23.0 °F 64% 29.56 in 10.0 mi WSW 19.6 mph 29.9 mph N/A   Overcast
1:53 PM 33.1 °F 21.9 °F 24.1 °F 70% 29.57 in 8.0 mi West 18.4 mph 29.9 mph 0.00 in Snow Light Snow
2:46 PM 35.6 °F 24.0 °F 23.0 °F 60% 29.55 in 10.0 mi WSW 23.0 mph 35.7 mph 0.00 in   Overcast
2:53 PM 35.1 °F 23.5 °F 21.9 °F 59% 29.57 in 10.0 mi West 21.9 mph 39.1 mph 0.00 in   Overcast
3:53 PM 33.1 °F 21.9 °F 21.9 °F 64% 29.60 in 10.0 mi WSW 18.4 mph 28.8 mph N/A   Overcast
4:53 PM 32.0 °F 19.8 °F 21.9 °F 66% 29.61 in 10.0 mi West 20.7 mph 34.5 mph N/A   Overcast
5:36 PM 32.0 °F 19.5 °F 21.2 °F 64% 29.61 in 10.0 mi WSW 21.9 mph 29.9 mph 0.00 in Snow Light Snow
5:53 PM 32.0 °F 20.1 °F 21.0 °F 64% 29.64 in 9.0 mi West 19.6 mph 29.9 mph 0.00 in Snow Light Snow
6:24 PM 32.0 °F 21.2 °F 19.4 °F 60% 29.62 in 10.0 mi West 16.1 mph 21.9 mph 0.00 in   Mostly Cloudy
6:53 PM 30.9 °F 19.8 °F 19.0 °F 61% 29.66 in 10.0 mi WSW 16.1 mph 25.3 mph 0.00 in   Mostly Cloudy
7:53 PM 30.0 °F 21.1 °F 19.0 °F 64% 29.69 in 10.0 mi WSW 10.4 mph 25.3 mph N/A   Mostly Cloudy
8:53 PM 30.0 °F 19.5 °F 18.0 °F 61% 29.69 in 10.0 mi WSW 13.8 mph 24.2 mph 0.00 in Snow Light Snow
9:53 PM 28.9 °F 18.6 °F 21.0 °F 72% 29.70 in 4.0 mi West 12.7 mph - 0.00 in Snow Light Snow
10:27 PM 28.4 °F 19.1 °F 23.0 °F 80% 29.67 in 2.5 mi West 10.4 mph 19.6 mph 0.00 in Snow Light Snow
10:37 PM 28.4 °F 19.1 °F 24.8 °F 86% 29.67 in 4.0 mi WSW 10.4 mph 19.6 mph 0.00 in Snow Light Snow
10:53 PM 28.0 °F 17.0 °F 24.1 °F 85% 29.70 in 5.0 mi WSW 13.8 mph - 0.00 in Snow Light Snow
11:23 PM 28.4 °F 19.1 °F 24.8 °F 86% 29.67 in 8.0 mi WSW 10.4 mph - 0.00 in Snow Light Snow
11:40 PM 28.4 °F 18.5 °F 24.8 °F 86% 29.68 in 7.0 mi West 11.5 mph - 0.00 in Snow Light Snow
11:53 PM 28.9 °F 18.6 °F 24.1 °F 82% 29.71 in 4.0 mi West 12.7 mph - 0.00 in Snow Light Snow